Location: Newark
(55.7083°N, 13.1992°E)
Time: 04:25:42
(UTC+00:00)

X-37B - Visible Passes

Search period start: 04 August 2021 00:00
Search period end: 14 August 2021 00:00
Orbit: 383 x 392 km, 45.0° (Epoch: 01 July)

Date Brightness Start Highest point End Pass type
(mag) Time Alt. Az. Time Alt. Az. Time Alt. Az.
07 Aug 2.8 02:33:30 10° SSW 02:34:58 13° S 02:36:27 10° SSE visible
08 Aug 2.9 01:37:06 11° SSE 01:37:06 11° SSE 01:38:03 10° SSE visible
09 Aug 2.7 02:13:38 11° SSW 02:14:35 13° S 02:16:04 10° SSE visible
11 Aug 2.9 01:54:51 11° S 01:54:51 11° S 01:55:24 10° SSE visible
